Home   Weather   Oklahoma City   Past weeks

Flag for USA Past Weather in Oklahoma City, Oklahoma, USA — Yesterday and Last 2 Weeks

Now
47 °F

Passing clouds.


Feels Like: 42 °F
Forecast: 41 / 55 °F
Wind: 9 mph from North

Location: Will Rogers World Airport

Current Time: Jan 22, 2017 at 2:33:22 am

Latest Report: Jan 22, 2017 at 1:52 am


Visibility: 10 mi

Pressure: 29.33 "Hg

Humidity: 86%

Dew Point: 43 °F

Location of Oklahoma CityLocation

Past Weather in Oklahoma City — Graph

°F

Oklahoma City Temperature Yesterday

Maximum temperature yesterday: 68 °F (at 2:52 pm)
Minimum temperature yesterday: 37 °F (at 4:52 am)
Average temperature yesterday: 50 °F

High & Low Weather Summary for the Past Weeks

 TemperatureHumidityPressure
High77 °F (Jan 11, 2:52 pm)100% (Jan 14, 10:56 pm)30.75 "Hg (Jan 14, 10:56 pm)
Low-2 °F (Jan 7, 6:52 am)16% (Jan 10, 2:52 pm)29.32 "Hg (Jan 21, 9:52 pm)
Average40 °F75%30.06 "Hg
* Reported Jan 7 12:52 am — Jan 22 12:52 am, Oklahoma City, Weather by CustomWeather, © 2017

Note: Actual official high and low records may vary slightly from our data, if they occured in-between our weather recording intervals... More about our weather records

Advertising

Oklahoma City Weather History for the Previous 24 Hours

Scroll right to see more
 ConditionsComfort  
Time TempWeatherWind HumidityBarometerVisibility
12:52 am
Sun, Jan 22
46 °FPartly cloudy.8 mph83%29.33 "Hg10 mi
11:52 pm
Sat, Jan 21
46 °FPassing clouds.5 mph89%29.34 "Hg10 mi
10:52 pm49 °FPassing clouds.3 mph80%29.32 "Hg10 mi
9:52 pm53 °FPassing clouds.10 mph69%29.32 "Hg10 mi
8:52 pm54 °FPartly cloudy.13 mph62%29.33 "Hg10 mi
7:52 pm56 °FPassing clouds.12 mph55%29.34 "Hg10 mi
6:52 pm57 °FPassing clouds.10 mph49%29.35 "Hg10 mi
5:52 pm59 °FPartly cloudy.9 mph46%29.36 "Hg10 mi
4:52 pm63 °FPartly sunny.12 mph40%29.35 "Hg10 mi
3:52 pm67 °FBroken clouds.10 mph33%29.34 "Hg10 mi
2:52 pm68 °FBroken clouds.15 mph32%29.34 "Hg10 mi
1:52 pm62 °FPartly sunny.8 mph43%29.37 "Hg10 mi
12:52 pm56 °FPartly sunny.13 mph53%29.43 "Hg10 mi
11:52 am51 °FMore clouds than sun.6 mph61%29.48 "Hg10 mi
10:52 am50 °FOvercast.5 mph61%29.50 "Hg10 mi
9:52 am47 °FMore clouds than sun.7 mph69%29.51 "Hg10 mi
8:52 am43 °FOvercast.5 mph82%29.54 "Hg10 mi
7:52 am37 °FPartly sunny.No wind82%29.55 "Hg10 mi
6:52 am41 °FPassing clouds.No wind74%29.52 "Hg10 mi
5:52 am40 °FPassing clouds.No wind77%29.50 "Hg10 mi
4:52 am37 °FPassing clouds.No wind82%29.51 "Hg10 mi
3:52 am41 °FPassing clouds.7 mph76%29.51 "Hg10 mi
2:52 am42 °FPassing clouds.8 mph71%29.53 "Hg10 mi
Weather by CustomWeather, © 2017

See weather overviewHow to use our weather pages